Location: الشقيري
(17.1356°N, 42.8272°E)
Time: 11:57:15
(UTC+00:00)

Hubble Space Telescope - Visible Passes

Search period start: 17 November 2019 00:00
Search period end: 27 November 2019 00:00
Orbit: 536 x 540 km, 28.5° (Epoch: 16 November)

Date Brightness Start Highest point End Pass type
(mag) Time Alt. Az. Time Alt. Az. Time Alt. Az.
17 Nov 1.0 15:10:27 10° WSW 15:14:33 63° NNW 15:17:54 15° ENE visible
17 Nov 3.7 16:52:48 10° WNW 16:53:14 12° WNW 16:53:14 12° WNW visible
18 Nov 1.4 15:00:01 10° W 15:03:59 48° NNW 15:07:58 10° NE visible
18 Nov 3.5 16:42:33 10° WNW 16:43:18 13° NW 16:43:18 13° NW visible
19 Nov 3.3 16:32:17 10° NW 16:33:21 14° NW 16:33:21 14° NW visible
20 Nov 3.1 16:21:59 10° NW 16:23:22 15° NNW 16:23:22 15° NNW visible
21 Nov 3.0 16:11:39 10° NW 16:13:24 15° NNW 16:13:24 15° NNW visible
22 Nov 2.8 16:01:14 10° NW 16:03:25 16° N 16:03:25 16° N visible
23 Nov 2.7 15:50:45 10° NW 15:53:27 17° N 15:53:28 17° N visible
24 Nov 2.6 15:40:13 10° NW 15:43:00 17° N 15:43:34 17° NNE visible
25 Nov 2.4 15:29:37 10° NW 15:32:34 19° N 15:33:43 17° NNE visible
26 Nov 2.3 15:18:58 10° NW 15:22:07 21° N 15:23:57 16° NE visible
